This demonstration page uses our WeatherBlox Daily Observations layout. Learn more.

38.88101, -77.10428

Hourly Observations for March 16, 2016

Temp ( °F °C ) Dew Point ( °F °C ) Humidity (%) Winds ( mph kmh ) Pressure ( in mb ) Visibility ( mi km ) Precip ( " mm )
12:52 am 00:52 Clear 52 11.1 50 10 93 93 Calm 29.85 1011 10 16.09344 0 0
1:52 am 01:52 Clear 52 11.1 50 10 93 93 Calm 29.85 1011 10 16.09344 0 0
2:52 am 02:52 Mostly Clear 50 10 48 8.9 93 93 Calm 29.85 1011 10 16.09344 0 0
3:52 am 03:52 Mostly Clear 51 10.6 49 9.4 92 92 Calm 29.83 1010 9 14.484096 0 0
4:52 am 04:52 Clear 50 10 48 8.9 93 93 Calm 29.83 1010 7 11.265408 0 0
5:52 am 05:52 Clear 50 10 48 8.9 93 93 ENE 3 6 29.83 1010 7 11.265408 0 0
6:52 am 06:52 Partly Cloudy 50 10 47 8.3 89 89 NE 6 9 29.83 1010 10 16.09344 0 0
7:52 am 07:52 Partly Cloudy 49 9.4 47 8.3 93 93 Calm 29.83 1010 8 12.874752 0 0
8:52 am 08:52 Sunny 55 12.8 50 10 83 83 NNE 3 6 29.83 1010 10 16.09344 0 0
9:52 am 09:52 Partly Cloudy 61 16.1 53 11.7 75 75 SE 6 9 29.83 1010 10 16.09344 0 0
10:52 am 10:52 Partly Cloudy 65 18.3 53 11.7 66 66 SSE 12 19 29.8 1009 10 16.09344 0 0
11:52 am 11:52 Partly Cloudy 68 20 55 12.8 63 63 SE 10 17 29.8 1009 10 16.09344 0 0
12:52 pm 12:52 Partly Cloudy 70 21.1 56 13.3 61 61 SSE 9 15 29.77 1008 10 16.09344 0 0
1:52 pm 13:52 Partly Cloudy 73 22.8 57 13.9 57 57 SSE 7 11 29.74 1007 10 16.09344 0 0
2:52 pm 14:52 Mostly Cloudy 73 22.8 56 13.3 55 55 SSE 9 15 29.71 1006 10 16.09344 0 0
3:52 pm 15:52 Mostly Cloudy 73 22.8 56 13.3 55 55 SE 9 15 29.68 1005 10 16.09344 0 0
4:52 pm 16:52 Mostly Cloudy 72 22.2 56 13.3 57 57 SSE 6 9 29.71 1006 10 16.09344 0 0
5:52 pm 17:52 Mostly Cloudy 71 21.7 56 13.3 59 59 SE 9 15 29.71 1006 10 16.09344 0 0
6:14 pm 18:14 Mostly Cloudy 68 20 55 13 64 64 E 9 15 29.71 1006 10 16.09344 0 0
6:42 pm 18:42 Mostly Cloudy with Light Rain 66 19 55 13 68 68 E 9 15 29.74 1007 10 16.09344 0 0
6:52 pm 18:52 Mostly Cloudy with Light Rain 67 19.4 55 12.8 66 66 E 7 11 29.74 1007 10 16.09344 0.001 0.001
7:08 pm 19:08 Mostly Cloudy with Light Rain 64 18 55 13 73 73 E 7 11 29.74 1007 10 16.09344 0 0
7:23 pm 19:23 Partly Cloudy 64 17.8 55 12.8 73 73 NE 6 9 29.74 1007 10 16.09344 0.01 0.254
7:52 pm 19:52 Partly Cloudy 63 17.2 55 12.8 76 76 NE 6 9 29.74 1007 10 16.09344 0.01 0.254
8:52 pm 20:52 Mostly Clear 63 17.2 54 12.2 73 73 E 3 6 29.77 1008 10 16.09344 0 0
9:52 pm 21:52 Clear 59 15 54 12.2 83 83 Calm 29.8 1009 10 16.09344 0 0
10:52 pm 22:52 Clear 56 13.3 53 11.7 90 90 Calm 29.8 1009 10 16.09344 0 0
11:52 pm 23:52 Clear 56 13.3 53 11.7 90 90 Calm 29.83 1010 10 16.09344 0 0

Powered by AerisWeather